Hourly Data Report for January 02, 2018

All times are specified in Local Standard Time (LST). Add 1 hour to adjust for Daylight Saving Time where and when it is observed.

DEER LAKE A
NEWFOUNDLAND

49°12'33.000" N
57°23'40.000" W
21.90 m
8401502
71809
YDF

Download Data

Hourly Data (January 2018)
Hourly Data Report for January 2, 2018
Temp Definition
°C
Dew Point Temp Definition
°C
Rel Hum Definition
%
Wind Dir Definition
10's deg

Wind Spd Definition
km/h
Visibility Definition
km
Stn Press Definition
kPa
Hmdx Definition


Wind Chill Definition


Weather Definition


TIME
00:30 -3.0 -3.5 96 36 1 0.8 100.27   -3 Moderate Snow
01:30 -2.9 -3.5 96 3 7 1.6 100.28   -6 Snow
02:30 -2.8 -3.4 96 36 3 0.8 100.33   -4 Moderate Snow
03:30 -2.7 -3.3 96 6 7 0.8 100.35   -6 Moderate Snow
04:30 -2.9 -3.5 96 5 8 1.2 100.37   -6 Snow
05:30 -3.2 -3.9 95 5 6 1.2 100.39   -6 Snow
06:30 -3.7 -4.5 94 7 6 6.4 100.41   -6 Snow
07:30 -3.9 -4.8 94 6 7 4.8 100.43   -7 Snow
08:30 -3.8 -4.6 94 2 5 19.3 100.45   -6 Snow
09:30 -3.9 -5.0 92 4 4 19.3 100.47   -6 Snow
10:30 -3.5 -4.8 90 3 8 4.8 100.46   -7 Snow
11:30 -2.9 -5.1 85 12 7 4.8 100.40   -6 Snow
12:30 -2.9 -4.7 87 36 2 4.8 100.33   -4 Snow
13:30 -2.5 -4.5 86 22 10 4.8 100.27   -6 Snow
14:30 -2.4 -3.6 92 22 14 4.8 100.23   -7 Snow
15:30 -2.8 -5.2 84 25 14 4.8 100.26   -8 Snow
16:30 -3.3 -5.6 84 27 9 8.1 100.28   -7 Snow
17:30 -3.9 -5.9 86 25 5 8.1 100.29   -6 Snow
18:30 -4.3 -6.4 86 23 9 9.7 100.31   -8 Snow
19:30 -4.6 -6.9 84 26 5 16.1 100.35   -7 Snow
20:30 -4.9 -7.6 82 25 7 16.1 100.37   -8 Snow
21:30 -5.2 -8.6 77 23 17 16.1 100.37   -11 Snow
22:30 -5.6 -8.6 79 24 13 16.1 100.39   -11 Snow
23:30 -6.3 -8.5 84 27 5 24.1 100.43   -9 Snow

Notes on Data Quality.

Legend

  • E = Estimated
  • M = Missing
  • NA = Not Available
Date modified: